Starlink 30875

operational
NORAD ID: 58224 Int'l Des: 2023-170 Owner: SPXS Country: US Constellation: starlink
LEOCIRCULAR

Über Starlink 30875

Beschreibung wird geladen...

Live-Position

3D-Globus wird geladen...

Nächste Überflüge

Höhenverlauf

Altitude vs Time

uPlot chart will show altitude changes over time

Zweizeiliger Elementsatz

1 58224U 23170U 25352.20484507 -.00001630 00000-0 -10564-3 0 9992
2 58224 43.0037 278.5360 0000830 277.9891 82.0857 15.02535587118028
Epoch: 18. Dez. 2025 • Age: 12 hours

Aktueller Status

Höhe 571.8 km
Geschwindigkeit 7.58 km/s
Subsatellitenpunkt -43.03°S, 166.24°W
Startdatum 4. Nov. 2023
Alter 2.1 years
Typ internet

Technische Details

Klassifizierung Payload
Masse 730.00 kg
Trockenmasse 700.00 kg
Gesamtmasse 730.00 kg
Länge 0.30 m
Durchmesser 4.10 m
Spannweite 29.00 m
Form Box + pan
Hersteller SPXS
Bus-Typ Starlink V2M
Phasenstatus In Orbit
Besitzer/Staat SPXS/US

Große Konstellationen

Loading constellations...